Time,TemperatureF,DewpointF,PressureIn,WindDirection,WindDirectionDegrees,WindSpeedMPH,WindSpeedGustMPH,Humidity,HourlyPrecipIn,Conditions,Clouds,dailyrainin,SoftwareType,DateUTC
2013-07-14 00:02:00,70.0,68.0,30.24,South,176,0.0,0.0,95,0.00,,,0.00,,2013-07-14 04:02:00,
2013-07-14 00:11:00,69.0,68.0,30.24,SSE,155,1.0,1.0,95,0.00,,,0.00,,2013-07-14 04:11:00,
2013-07-14 00:22:00,69.0,68.0,30.24,SSE,155,0.0,0.0,96,0.00,,,0.00,,2013-07-14 04:22:00,
2013-07-14 00:32:00,69.0,68.0,30.24,SSE,155,0.0,0.0,96,0.00,,,0.00,,2013-07-14 04:32:00,
2013-07-14 00:42:00,68.0,67.0,30.24,SSE,155,0.0,0.0,96,0.00,,,0.00,,2013-07-14 04:42:00,
2013-07-14 00:54:00,68.0,67.0,30.24,SSE,156,0.0,0.0,97,0.00,,,0.00,,2013-07-14 04:54:00,
2013-07-14 01:02:00,68.0,67.0,30.24,SSE,155,0.0,1.0,97,0.00,,,0.00,,2013-07-14 05:02:00,
2013-07-14 01:11:00,68.0,67.0,30.24,SSE,155,0.0,0.0,97,0.00,,,0.00,,2013-07-14 05:11:00,
2013-07-14 01:23:00,68.0,67.0,30.24,SSE,155,0.0,0.0,97,0.00,,,0.00,,2013-07-14 05:23:00,
2013-07-14 01:32:00,67.0,66.0,30.24,SSE,155,0.0,1.0,97,0.00,,,0.00,,2013-07-14 05:32:00,
2013-07-14 01:43:00,67.0,66.0,30.24,SSE,155,0.0,0.0,97,0.00,,,0.00,,2013-07-14 05:43:00,
2013-07-14 01:53:00,67.0,66.0,30.24,SSE,155,0.0,0.0,97,0.00,,,0.00,,2013-07-14 05:53:00,
2013-07-14 02:01:00,67.0,66.0,30.24,SSE,155,0.0,1.0,97,0.00,,,0.00,,2013-07-14 06:01:00,
2013-07-14 02:12:00,67.0,66.0,30.24,SSE,155,0.0,1.0,97,0.00,,,0.00,,2013-07-14 06:12:00,
2013-07-14 02:22:00,67.0,66.0,30.24,SSE,155,0.0,0.0,97,0.00,,,0.00,,2013-07-14 06:22:00,
2013-07-14 02:32:00,66.0,65.0,30.24,SSE,155,0.0,0.0,97,0.00,,,0.00,,2013-07-14 06:32:00,
2013-07-14 02:42:00,66.0,65.0,30.25,SSE,155,0.0,0.0,97,0.00,,,0.00,,2013-07-14 06:42:00,
2013-07-14 02:53:00,66.0,65.0,30.25,SSE,155,0.0,0.0,98,0.00,,,0.00,,2013-07-14 06:53:00,
2013-07-14 03:02:00,66.0,65.0,30.25,SSE,155,0.0,0.0,98,0.00,,,0.00,,2013-07-14 07:02:00,
2013-07-14 03:12:00,66.0,65.0,30.25,SSE,155,0.0,0.0,98,0.00,,,0.00,,2013-07-14 07:12:00,
2013-07-14 03:22:00,66.0,65.0,30.25,SSE,154,0.0,1.0,98,0.00,,,0.00,,2013-07-14 07:22:00,
2013-07-14 03:33:00,66.0,65.0,30.25,SSE,154,0.0,0.0,98,0.00,,,0.00,,2013-07-14 07:33:00,
2013-07-14 03:43:00,66.0,65.0,30.25,SE,136,0.0,1.0,98,0.00,,,0.00,,2013-07-14 07:43:00,
2013-07-14 03:53:00,66.0,65.0,30.25,SE,136,0.0,1.0,98,0.00,,,0.00,,2013-07-14 07:53:00,
2013-07-14 04:01:00,66.0,65.0,30.26,SE,136,0.0,0.0,98,0.00,,,0.00,,2013-07-14 08:01:00,
2013-07-14 04:11:00,66.0,65.0,30.26,SE,137,0.0,1.0,98,0.00,,,0.00,,2013-07-14 08:11:00,
2013-07-14 04:22:00,66.0,65.0,30.25,SE,137,0.0,0.0,98,0.00,,,0.00,,2013-07-14 08:22:00,
2013-07-14 04:32:00,65.0,64.0,30.25,SE,136,0.0,0.0,98,0.00,,,0.00,,2013-07-14 08:32:00,
2013-07-14 04:42:00,65.0,64.0,30.25,SE,137,0.0,0.0,98,0.00,,,0.00,,2013-07-14 08:42:00,
2013-07-14 04:53:00,65.0,64.0,30.26,SE,136,0.0,0.0,98,0.00,,,0.00,,2013-07-14 08:53:00,
2013-07-14 05:01:00,65.0,64.0,30.26,SE,136,0.0,1.0,98,0.00,,,0.00,,2013-07-14 09:01:00,
2013-07-14 05:11:00,65.0,64.0,30.26,SE,136,0.0,0.0,98,0.00,,,0.00,,2013-07-14 09:11:00,
2013-07-14 05:22:00,64.0,63.0,30.26,SE,136,0.0,1.0,98,0.00,,,0.00,,2013-07-14 09:22:00,
2013-07-14 05:32:00,64.0,63.0,30.27,SE,136,0.0,0.0,98,0.00,,,0.00,,2013-07-14 09:32:00,
2013-07-14 05:42:00,64.0,63.0,30.26,SE,136,0.0,0.0,98,0.00,,,0.00,,2013-07-14 09:42:00,
2013-07-14 05:53:00,64.0,63.0,30.27,SE,136,0.0,0.0,98,0.00,,,0.00,,2013-07-14 09:53:00,
2013-07-14 06:01:00,64.0,63.0,30.27,SE,136,0.0,1.0,98,0.00,,,0.00,,2013-07-14 10:01:00,
2013-07-14 06:12:00,65.0,65.0,30.27,SE,136,0.0,1.0,99,0.00,,,0.00,,2013-07-14 10:12:00,
2013-07-14 06:22:00,65.0,64.0,30.28,SE,136,0.0,0.0,98,0.00,,,0.00,,2013-07-14 10:22:00,
2013-07-14 06:32:00,64.0,63.0,30.28,SE,136,0.0,0.0,98,0.00,,,0.00,,2013-07-14 10:32:00,
2013-07-14 06:42:00,65.0,64.0,30.28,SE,136,0.0,0.0,98,0.00,,,0.00,,2013-07-14 10:42:00,
2013-07-14 06:53:00,65.0,64.0,30.29,SE,136,0.0,0.0,98,0.00,,,0.00,,2013-07-14 10:53:00,
2013-07-14 07:02:00,66.0,66.0,30.29,SE,136,0.0,0.0,99,0.00,,,0.00,,2013-07-14 11:02:00,
2013-07-14 07:11:00,67.0,67.0,30.29,SSE,148,1.0,2.0,99,0.00,,,0.00,,2013-07-14 11:11:00,
2013-07-14 07:22:00,68.0,68.0,30.29,SE,137,1.0,2.0,99,0.00,,,0.00,,2013-07-14 11:22:00,
2013-07-14 07:32:00,68.0,68.0,30.29,SSE,150,0.0,2.0,99,0.00,,,0.00,,2013-07-14 11:32:00,
2013-07-14 07:43:00,69.0,69.0,30.29,SE,136,0.0,1.0,99,0.00,,,0.00,,2013-07-14 11:43:00,
2013-07-14 07:53:00,70.0,69.0,30.29,SE,136,1.0,2.0,98,0.00,,,0.00,,2013-07-14 11:53:00,
2013-07-14 08:02:00,71.0,70.0,30.29,SSE,147,1.0,2.0,97,0.00,,,0.00,,2013-07-14 12:02:00,
2013-07-14 08:12:00,71.0,69.0,30.29,SSE,147,2.0,3.0,95,0.00,,,0.00,,2013-07-14 12:12:00,
2013-07-14 08:22:00,72.0,70.0,30.29,SSE,154,2.0,4.0,92,0.00,,,0.00,,2013-07-14 12:22:00,
2013-07-14 08:33:00,74.0,71.0,30.30,SE,146,1.0,3.0,91,0.00,,,0.00,,2013-07-14 12:33:00,
2013-07-14 08:43:00,75.0,72.0,30.30,SW,219,1.0,4.0,89,0.00,,,0.00,,2013-07-14 12:43:00,
2013-07-14 08:52:00,76.0,72.0,30.30,SSW,213,1.0,3.0,87,0.00,,,0.00,,2013-07-14 12:52:00,
2013-07-14 09:01:00,78.0,73.0,30.30,South,172,2.0,5.0,84,0.00,,,0.00,,2013-07-14 13:01:00,
2013-07-14 09:22:00,79.0,72.0,30.29,South,177,3.0,6.0,79,0.00,,,0.00,,2013-07-14 13:22:00,
2013-07-14 09:32:00,80.0,73.0,30.29,SSW,207,3.0,5.0,79,0.00,,,0.00,,2013-07-14 13:32:00,
2013-07-14 09:42:00,80.0,72.0,30.29,SSW,193,3.0,7.0,77,0.00,,,0.00,,2013-07-14 13:42:00,
2013-07-14 09:53:00,80.0,72.0,30.29,West,270,3.0,7.0,76,0.00,,,0.00,,2013-07-14 13:53:00,
2013-07-14 10:02:00,81.0,72.0,30.29,SSW,205,3.0,6.0,75,0.00,,,0.00,,2013-07-14 14:02:00,
2013-07-14 10:11:00,82.0,73.0,30.29,NNW,334,1.0,5.0,74,0.00,,,0.00,,2013-07-14 14:11:00,
2013-07-14 10:23:00,83.0,73.0,30.29,NNE,23,2.0,4.0,73,0.00,,,0.00,,2013-07-14 14:23:00,
2013-07-14 10:33:00,83.0,73.0,30.29,North,11,1.0,4.0,72,0.00,,,0.00,,2013-07-14 14:33:00,
2013-07-14 10:43:00,83.0,73.0,30.29,NNW,338,1.0,4.0,71,0.00,,,0.00,,2013-07-14 14:43:00,
2013-07-14 10:53:00,83.0,73.0,30.29,WSW,255,2.0,5.0,72,0.00,,,0.00,,2013-07-14 14:53:00,
2013-07-14 11:01:00,84.0,72.0,30.29,North,2,2.0,3.0,67,0.00,,,0.00,,2013-07-14 15:01:00,
2013-07-14 11:12:00,84.0,71.0,30.28,NNW,340,2.0,4.0,65,0.00,,,0.00,,2013-07-14 15:12:00,
2013-07-14 11:22:00,84.0,71.0,30.28,ESE,123,2.0,5.0,65,0.00,,,0.00,,2013-07-14 15:22:00,
2013-07-14 11:32:00,85.0,73.0,30.28,East,101,2.0,4.0,67,0.00,,,0.00,,2013-07-14 15:32:00,
2013-07-14 11:42:00,85.0,72.0,30.29,North,353,2.0,5.0,66,0.00,,,0.00,,2013-07-14 15:42:00,
2013-07-14 11:53:00,84.0,72.0,30.29,NE,43,1.0,4.0,67,0.00,,,0.00,,2013-07-14 15:53:00,
2013-07-14 12:01:00,85.0,72.0,30.29,WNW,294,1.0,4.0,65,0.00,,,0.00,,2013-07-14 16:01:00,
2013-07-14 12:11:00,85.0,72.0,30.28,ENE,77,2.0,3.0,66,0.00,,,0.00,,2013-07-14 16:11:00,
2013-07-14 12:22:00,84.0,73.0,30.28,East,89,2.0,3.0,70,0.00,,,0.00,,2013-07-14 16:22:00,
2013-07-14 12:32:00,85.0,72.0,30.28,ENE,58,2.0,4.0,66,0.00,,,0.00,,2013-07-14 16:32:00,
2013-07-14 12:43:00,86.0,73.0,30.27,WNW,287,0.0,3.0,65,0.00,,,0.00,,2013-07-14 16:43:00,
2013-07-14 12:53:00,86.0,71.0,30.27,West,271,1.0,4.0,61,0.00,,,0.00,,2013-07-14 16:53:00,
2013-07-14 13:03:00,87.0,72.0,30.27,South,172,2.0,4.0,62,0.00,,,0.00,,2013-07-14 17:03:00,
2013-07-14 13:11:00,86.0,72.0,30.27,SSE,154,2.0,6.0,64,0.00,,,0.00,,2013-07-14 17:11:00,
2013-07-14 13:22:00,86.0,73.0,30.27,NE,54,2.0,4.0,66,0.00,,,0.00,,2013-07-14 17:22:00,
2013-07-14 13:32:00,85.0,72.0,30.27,NNE,13,1.0,2.0,65,0.00,,,0.00,,2013-07-14 17:32:00,
2013-07-14 13:43:00,86.0,72.0,30.27,NNE,18,1.0,3.0,64,0.00,,,0.00,,2013-07-14 17:43:00,
2013-07-14 13:53:00,86.0,72.0,30.27,NE,46,1.0,2.0,63,0.00,,,0.00,,2013-07-14 17:53:00,
2013-07-14 14:01:00,87.0,73.0,30.26,NE,46,0.0,3.0,63,0.00,,,0.00,,2013-07-14 18:01:00,
2013-07-14 14:11:00,88.0,73.0,30.26,NE,35,1.0,5.0,62,0.00,,,0.00,,2013-07-14 18:11:00,
2013-07-14 14:22:00,88.0,73.0,30.26,SW,231,1.0,3.0,61,0.00,,,0.00,,2013-07-14 18:22:00,
2013-07-14 14:32:00,88.0,71.0,30.26,WSW,240,3.0,5.0,57,0.00,,,0.00,,2013-07-14 18:32:00,
2013-07-14 14:42:00,88.0,72.0,30.26,WSW,243,0.0,5.0,59,0.00,,,0.00,,2013-07-14 18:42:00,
2013-07-14 14:52:00,89.0,73.0,30.26,North,11,1.0,4.0,59,0.00,,,0.00,,2013-07-14 18:52:00,
2013-07-14 15:02:00,88.0,73.0,30.25,SSE,162,1.0,4.0,62,0.00,,,0.00,,2013-07-14 19:02:00,
2013-07-14 15:12:00,89.0,73.0,30.25,NNE,23,2.0,5.0,60,0.00,,,0.00,,2013-07-14 19:12:00,
2013-07-14 15:22:00,88.0,71.0,30.25,SW,231,1.0,6.0,58,0.00,,,0.00,,2013-07-14 19:22:00,
2013-07-14 15:32:00,90.0,75.0,30.25,SSE,162,0.0,3.0,62,0.00,,,0.00,,2013-07-14 19:32:00,
2013-07-14 15:43:00,90.0,73.0,30.24,South,175,1.0,6.0,57,0.00,,,0.00,,2013-07-14 19:43:00,
2013-07-14 15:53:00,91.0,74.0,30.24,NW,320,2.0,3.0,57,0.00,,,0.00,,2013-07-14 19:53:00,
2013-07-14 16:02:00,90.0,74.0,30.24,WNW,284,1.0,3.0,60,0.00,,,0.00,,2013-07-14 20:02:00,
2013-07-14 16:11:00,89.0,75.0,30.24,ENE,59,2.0,4.0,63,0.00,,,0.00,,2013-07-14 20:11:00,
2013-07-14 16:22:00,89.0,73.0,30.24,NW,317,3.0,6.0,59,0.00,,,0.00,,2013-07-14 20:22:00,
2013-07-14 16:32:00,90.0,74.0,30.24,North,351,2.0,4.0,59,0.00,,,0.00,,2013-07-14 20:32:00,
2013-07-14 16:43:00,90.0,74.0,30.23,NNW,336,1.0,5.0,60,0.00,,,0.00,,2013-07-14 20:43:00,
2013-07-14 16:53:00,90.0,75.0,30.23,WNW,288,1.0,3.0,61,0.00,,,0.00,,2013-07-14 20:53:00,
2013-07-14 17:02:00,90.0,74.0,30.23,NW,304,3.0,5.0,60,0.00,,,0.00,,2013-07-14 21:02:00,
2013-07-14 17:11:00,90.0,72.0,30.23,NNE,33,3.0,5.0,56,0.00,,,0.00,,2013-07-14 21:11:00,
2013-07-14 17:22:00,90.0,72.0,30.23,NW,324,2.0,4.0,56,0.00,,,0.00,,2013-07-14 21:22:00,
2013-07-14 17:32:00,90.0,74.0,30.23,ENE,58,3.0,4.0,59,0.00,,,0.00,,2013-07-14 21:32:00,
2013-07-14 17:43:00,88.0,76.0,30.23,NNW,347,2.0,7.0,68,0.00,,,0.00,,2013-07-14 21:43:00,
2013-07-14 17:52:00,87.0,76.0,30.22,ENE,58,3.0,6.0,71,0.00,,,0.00,,2013-07-14 21:52:00,
2013-07-14 18:01:00,86.0,77.0,30.23,ENE,66,4.0,6.0,74,0.00,,,0.00,,2013-07-14 22:01:00,
2013-07-14 18:11:00,86.0,77.0,30.23,ENE,66,4.0,6.0,74,0.00,,,0.00,,2013-07-14 22:11:00,
2013-07-14 18:22:00,85.0,77.0,30.22,NE,51,4.0,7.0,76,0.00,,,0.00,,2013-07-14 22:22:00,
2013-07-14 18:32:00,85.0,76.0,30.22,NE,40,3.0,7.0,75,0.00,,,0.00,,2013-07-14 22:32:00,
2013-07-14 18:42:00,84.0,75.0,30.23,NNE,33,3.0,6.0,74,0.00,,,0.00,,2013-07-14 22:42:00,
2013-07-14 18:53:00,85.0,76.0,30.23,NE,49,2.0,4.0,74,0.00,,,0.00,,2013-07-14 22:53:00,
2013-07-14 19:01:00,85.0,75.0,30.23,NE,56,3.0,6.0,73,0.00,,,0.00,,2013-07-14 23:01:00,
2013-07-14 19:11:00,84.0,74.0,30.23,ENE,59,2.0,6.0,73,0.00,,,0.00,,2013-07-14 23:11:00,
2013-07-14 19:22:00,84.0,75.0,30.23,NNE,24,2.0,5.0,74,0.00,,,0.00,,2013-07-14 23:22:00,
2013-07-14 19:32:00,82.0,73.0,30.23,NE,53,4.0,6.0,74,0.00,,,0.00,,2013-07-14 23:32:00,
2013-07-14 19:42:00,82.0,74.0,30.23,NE,47,0.0,5.0,77,0.00,,,0.00,,2013-07-14 23:42:00,
2013-07-14 19:53:00,82.0,74.0,30.23,NE,47,0.0,1.0,78,0.00,,,0.00,,2013-07-14 23:53:00,
2013-07-14 20:02:00,81.0,73.0,30.23,NE,44,1.0,1.0,77,0.00,,,0.00,,2013-07-15 00:02:00,
2013-07-14 20:11:00,81.0,74.0,30.23,NE,44,0.0,1.0,79,0.00,,,0.00,,2013-07-15 00:11:00,
2013-07-14 20:22:00,80.0,73.0,30.23,NE,41,1.0,1.0,80,0.00,,,0.00,,2013-07-15 00:22:00,
2013-07-14 20:32:00,79.0,72.0,30.23,NNE,19,0.0,3.0,78,0.00,,,0.00,,2013-07-15 00:32:00,
2013-07-14 20:43:00,78.0,71.0,30.23,NE,34,0.0,1.0,80,0.00,,,0.00,,2013-07-15 00:43:00,
2013-07-14 20:53:00,78.0,72.0,30.24,NNE,33,0.0,1.0,82,0.00,,,0.00,,2013-07-15 00:53:00,
2013-07-14 21:01:00,77.0,71.0,30.24,North,359,0.0,1.0,83,0.00,,,0.00,,2013-07-15 01:01:00,
2013-07-14 21:11:00,77.0,71.0,30.24,North,360,0.0,1.0,82,0.00,,,0.00,,2013-07-15 01:11:00,
2013-07-14 21:22:00,76.0,70.0,30.23,North,360,0.0,0.0,83,0.00,,,0.00,,2013-07-15 01:22:00,
2013-07-14 21:32:00,75.0,71.0,30.24,North,360,0.0,1.0,86,0.00,,,0.00,,2013-07-15 01:32:00,
2013-07-14 21:43:00,75.0,71.0,30.24,North,360,0.0,0.0,87,0.00,,,0.00,,2013-07-15 01:43:00,
2013-07-14 21:53:00,75.0,71.0,30.24,North,359,0.0,1.0,87,0.00,,,0.00,,2013-07-15 01:53:00,
2013-07-14 22:02:00,75.0,71.0,30.24,WNW,300,1.0,2.0,88,0.00,,,0.00,,2013-07-15 02:02:00,
2013-07-14 22:11:00,74.0,71.0,30.24,WNW,300,0.0,1.0,89,0.00,,,0.00,,2013-07-15 02:11:00,
2013-07-14 22:22:00,74.0,71.0,30.24,WNW,300,0.0,0.0,89,0.00,,,0.00,,2013-07-15 02:22:00,
2013-07-14 22:32:00,74.0,71.0,30.24,WNW,300,0.0,0.0,90,0.00,,,0.00,,2013-07-15 02:32:00,
2013-07-14 22:42:00,73.0,70.0,30.24,WNW,300,0.0,1.0,91,0.00,,,0.00,,2013-07-15 02:42:00,
2013-07-14 22:53:00,73.0,70.0,30.24,WNW,300,0.0,0.0,91,0.00,,,0.00,,2013-07-15 02:53:00,
2013-07-14 23:02:00,72.0,69.0,30.24,WNW,300,0.0,1.0,91,0.00,,,0.00,,2013-07-15 03:02:00,
2013-07-14 23:11:00,72.0,70.0,30.24,WNW,300,0.0,0.0,92,0.00,,,0.00,,2013-07-15 03:11:00,
2013-07-14 23:22:00,72.0,70.0,30.24,WNW,300,0.0,0.0,92,0.00,,,0.00,,2013-07-15 03:22:00,
2013-07-14 23:32:00,72.0,70.0,30.24,WNW,300,0.0,0.0,93,0.00,,,0.00,,2013-07-15 03:32:00,
2013-07-14 23:43:00,73.0,71.0,30.25,WNW,300,0.0,0.0,93,0.00,,,0.00,,2013-07-15 03:43:00,
2013-07-14 23:53:00,73.0,71.0,30.25,WNW,300,0.0,0.0,93,0.00,,,0.00,,2013-07-15 03:53:00,